星链-2178 (STARLINK-2178 )

导读 | 豆包AI

STARLINK-2178是美国太空探索技术公司(SpaceX)于2021年3月4日发射的星链(Starlink)低轨通信卫星,属于星链项目快速扩张阶段的组网卫星。星链计划通过数千颗低轨卫星构建全球高速互联网网络,该卫星旨在补充星座容量,为全球偏远地区等提供低延迟宽带接入服务,助力星链实现全球无缝覆盖的通信目标,也是目前全球最大低轨卫星星座的组成部分。

基本信息
目录编号:
47760
目录名称:
STARLINK-2178
国际标识:
2021-017AQ
轨道中心:
EARTH
卫星名称:
星链-2178
卫星全名:
星链-2178 (STARLINK-2178 )
卫星状态:
在轨 (已飞行1883 天)
发射日期:
2021-03-04 UTC
国别 :
美国 (US)
星等 :
--
轨道信息
数据来源 国际轨道数据 AOE轨道数据
星历时间 2026-04-30T12:00:01+0800
9小时前
查看轨道信息
2026-04-29T17:00:00+0800
1天前
查看轨道信息
半长轴 6848.846km 6848.883km
偏心率 0.0000989 0.0001571
轨道倾角 53.158° 53.160°
近地点辐角 84.155° 85.716°
升交点赤经 337.406° 341.091°
平近点角 317.035° 267.642°
近地点 470.031km 469.67km
远地点 471.387km 471.822km
周期 94.013分钟 94.013分钟
每日圈数 15.317106 15.316982
详细信息
固有亮度:
5
最大亮度:
2.5
卫星平台:
Starlink V1.0
覆盖范围:
全球
运营商:
太空探索技术公司
运营商所在国:
美国
制造商(研发单位):
太空探索技术公司
制造商所在国:
美国
使用方式:
暂无
卫星简介
星链(Starlink)计划是由太空探索技术公司(SpaceX)提出的一个巨型低轨卫星互联网星座项目,计划在2019年至2024年间在太空搭建由约1.2万颗卫星组成的“星链”网络,其中1584颗将部署在地球上空550千米处的近地轨道,并从2020年开始工作。该卫星仍在工作。
2D轨道图
3D轨道图
轨道高度分析图
轨道倾角分析图
轨道综合分析图
查看轨道综合分析图